This is the latest recevied weather packets stored in our database for station/object SV9TNF-56. If no packets are shown the sender has not sent any weather packets the latest 10 day(s).
| Time | Temp. | Humidity | Pressure | Rain* | Wind** | Luminosity | Snow |
|---|---|---|---|---|---|---|---|
| 1788315513 | 25° C | 63% | 1011.2 hPa | 0 mm | 3.58 m/s, 195° | - | - |
| 1788315213 | 25° C | 62% | 1011.2 hPa | 0 mm | 18.33 m/s, 273° | - | - |
| 1788314913 | 25° C | 61% | 1011.2 hPa | 0 mm | 8.05 m/s, 280° | - | - |
| 1788314613 | 25° C | 60% | 1010.8 hPa | 0 mm | 13.41 m/s, 168° | - | - |
| 1788314312 | 25° C | 60% | 1011.2 hPa | 0 mm | 14.31 m/s, 228° | - | - |
| 1788314013 | 25° C | 60% | 1011.2 hPa | 0 mm | 12.52 m/s, 281° | - | - |
| 1788313713 | 25° C | 61% | 1011.2 hPa | 0 mm | 22.35 m/s, 265° | - | - |
| 1788313412 | 25° C | 60% | 1010.8 hPa | 0 mm | 10.28 m/s, 271° | - | - |
| 1788313112 | 25° C | 60% | 1011.2 hPa | 0 mm | 24.59 m/s, 257° | - | - |
| 1788312812 | 25.56° C | 59% | 1010.8 hPa | 0 mm | 14.31 m/s, 287° | - | - |
| 1788312512 | 25.56° C | 59% | 1010.8 hPa | 0 mm | 15.2 m/s, 246° | - | - |
| 1788312212 | 25.56° C | 58% | 1010.8 hPa | 0 mm | 6.26 m/s, 228° | - | - |
| 1788311912 | 25.56° C | 59% | 1010.8 hPa | 0 mm | 23.25 m/s, 234° | - | - |
| 1788311612 | 25.56° C | 58% | 1010.8 hPa | 0 mm | 4.92 m/s, 72° | - | - |
| 1788311311 | 25.56° C | 58% | 1010.8 hPa | 0 mm | 13.86 m/s, 186° | - | - |
| 1788311012 | 25.56° C | 57% | 1010.8 hPa | 0 mm | 12.96 m/s, 183° | - | - |
| 1788310712 | 25.56° C | 56% | 1010.8 hPa | 0 mm | 7.15 m/s, 226° | - | - |
| 1788310411 | 25.56° C | 56% | 1011.2 hPa | 0 mm | 16.99 m/s, 279° | - | - |
| 1788310111 | 25.56° C | 56% | 1010.8 hPa | 0 mm | 13.41 m/s, 263° | - | - |
| 1788309811 | 25° C | 58% | 1011.2 hPa | 0 mm | 16.99 m/s, 272° | - | - |
| 1788309511 | 25.56° C | 58% | 1011.2 hPa | 0 mm | 14.75 m/s, 257° | - | - |
| 1788309211 | 25.56° C | 57% | 1011.2 hPa | 0 mm | 8.49 m/s, 234° | - | - |
| 1788308911 | 25.56° C | 57% | 1011.2 hPa | 0 mm | 8.05 m/s, 300° | - | - |
| 1788308611 | 25.56° C | 58% | 1011.5 hPa | 0 mm | 13.86 m/s, 172° | - | - |
| 1788308310 | 25.56° C | 58% | 1011.2 hPa | 0 mm | 19.67 m/s, 348° | - | - |
* Rain latest hour (hover to see other rain measurements)
** Current wind speed in m/s (hover to see current wind gust speed)